Year,Month,Day,Hour,Minute,Value (Times are PST for windspeed in km/hr)
2011,09,25,00,00,0.00
2011,09,25,00,01,0.00
2011,09,25,00,02,0.00
2011,09,25,00,03,0.00
2011,09,25,00,04,0.00
2011,09,25,00,05,0.00
2011,09,25,00,06,0.00
2011,09,25,00,07,0.00
2011,09,25,00,08,0.00
2011,09,25,00,09,0.00
2011,09,25,00,10,0.30
2011,09,25,00,11,0.30
2011,09,25,00,12,0.70
2011,09,25,00,18,0.00
2011,09,25,00,19,0.00
2011,09,25,00,20,0.10
2011,09,25,00,21,1.70
2011,09,25,00,22,1.20
2011,09,25,00,23,3.00
2011,09,25,00,24,1.40
2011,09,25,00,25,0.90
2011,09,25,00,26,0.00
2011,09,25,00,27,0.00
2011,09,25,00,28,0.00
2011,09,25,00,29,0.00
2011,09,25,00,30,0.00
2011,09,25,00,31,0.00
2011,09,25,00,32,0.00
2011,09,25,00,33,0.00
2011,09,25,00,34,0.00
2011,09,25,00,35,0.00
2011,09,25,00,36,0.00
2011,09,25,00,37,0.00
2011,09,25,00,38,0.20
2011,09,25,00,39,0.00
2011,09,25,00,40,1.40
2011,09,25,00,41,2.40
2011,09,25,00,42,0.00
2011,09,25,00,43,0.00
2011,09,25,00,44,0.00
2011,09,25,00,45,0.00
2011,09,25,00,46,0.00
2011,09,25,00,47,0.30
2011,09,25,00,48,1.40
2011,09,25,00,49,1.00
2011,09,25,00,50,0.00
2011,09,25,00,51,0.00
2011,09,25,00,52,0.00
2011,09,25,00,53,0.00
2011,09,25,00,54,0.00
2011,09,25,00,55,0.00
2011,09,25,00,56,0.00
2011,09,25,00,57,0.40
2011,09,25,00,58,1.10
2011,09,25,00,59,2.50
2011,09,25,01,00,0.40
2011,09,25,01,01,0.00
2011,09,25,01,02,0.10
2011,09,25,01,03,0.80
2011,09,25,01,04,0.50
2011,09,25,01,05,0.00
2011,09,25,01,06,0.00
2011,09,25,01,07,0.80
2011,09,25,01,08,3.20
2011,09,25,01,09,2.50
2011,09,25,01,10,0.70
2011,09,25,01,11,0.00
2011,09,25,01,12,0.10
2011,09,25,01,13,1.00
2011,09,25,01,14,0.30
2011,09,25,01,15,0.00
2011,09,25,01,16,0.00
2011,09,25,01,17,0.00
2011,09,25,01,18,0.00
2011,09,25,01,19,0.00
2011,09,25,01,20,0.00
2011,09,25,01,21,1.60
2011,09,25,01,22,0.00
2011,09,25,01,23,0.00
2011,09,25,01,24,0.00
2011,09,25,01,25,0.00
2011,09,25,01,26,0.00
2011,09,25,01,27,0.00
2011,09,25,01,28,0.80
2011,09,25,01,29,0.10
2011,09,25,01,30,0.00
2011,09,25,01,31,0.00
2011,09,25,01,32,0.00
2011,09,25,01,33,0.00
2011,09,25,01,34,0.20
2011,09,25,01,35,0.30
2011,09,25,01,36,0.00
2011,09,25,01,37,0.00
2011,09,25,01,38,0.00
2011,09,25,01,39,0.00
2011,09,25,01,40,0.00
2011,09,25,01,41,0.00
2011,09,25,01,42,0.00
2011,09,25,01,43,0.00
2011,09,25,01,44,0.00
2011,09,25,01,45,0.00
2011,09,25,01,46,0.00
2011,09,25,01,47,0.00
2011,09,25,01,48,0.00
2011,09,25,01,49,0.00
2011,09,25,01,50,0.00
2011,09,25,01,51,0.00
2011,09,25,01,52,0.30
2011,09,25,01,53,2.80
2011,09,25,01,54,2.80
2011,09,25,01,55,3.00
2011,09,25,01,56,1.90
2011,09,25,01,57,2.30
2011,09,25,01,58,0.00
2011,09,25,01,59,0.00
2011,09,25,02,00,3.10
2011,09,25,02,01,1.70
2011,09,25,02,02,0.40
2011,09,25,02,03,0.00
2011,09,25,02,04,2.60
2011,09,25,02,05,0.60
2011,09,25,02,06,1.50
2011,09,25,02,07,3.50
2011,09,25,02,08,2.80
2011,09,25,02,09,0.10
2011,09,25,02,10,0.30
2011,09,25,02,11,0.00
2011,09,25,02,12,0.40
2011,09,25,02,13,1.40
2011,09,25,02,14,2.20
2011,09,25,02,15,2.10
2011,09,25,02,16,1.60
2011,09,25,02,17,0.20
2011,09,25,02,18,2.20
2011,09,25,02,19,2.50
2011,09,25,02,20,0.60
2011,09,25,02,21,2.00
2011,09,25,02,22,3.90
2011,09,25,02,23,1.70
2011,09,25,02,24,0.10
2011,09,25,02,25,0.10
2011,09,25,02,26,0.00
2011,09,25,02,27,0.00
2011,09,25,02,28,0.00
2011,09,25,02,29,0.00
2011,09,25,02,30,0.10
2011,09,25,02,31,0.10
2011,09,25,02,32,0.60
2011,09,25,02,33,3.60
2011,09,25,02,34,1.60
2011,09,25,02,35,1.90
2011,09,25,02,36,6.40
2011,09,25,02,37,4.60
2011,09,25,02,38,5.20
2011,09,25,02,39,6.40
2011,09,25,02,40,5.20
2011,09,25,02,41,7.40
2011,09,25,02,42,12.80
2011,09,25,02,43,15.20
2011,09,25,02,44,7.30
2011,09,25,02,45,6.60
2011,09,25,02,46,16.80
2011,09,25,02,47,10.50
2011,09,25,02,48,13.80
2011,09,25,02,49,15.30
2011,09,25,02,50,14.70
2011,09,25,02,51,14.60
2011,09,25,02,52,13.60
2011,09,25,02,53,14.90
2011,09,25,02,54,13.60
2011,09,25,02,55,11.90
2011,09,25,02,56,16.00
2011,09,25,02,57,8.50
2011,09,25,02,58,18.50
2011,09,25,02,59,21.30
2011,09,25,03,00,17.30
2011,09,25,03,01,13.80
2011,09,25,03,02,22.60
2011,09,25,03,03,15.70
2011,09,25,03,04,18.60
2011,09,25,03,05,16.30
2011,09,25,03,06,15.60
2011,09,25,03,07,13.20
2011,09,25,03,08,15.40
2011,09,25,03,09,17.50
2011,09,25,03,10,16.50
2011,09,25,03,11,15.10
2011,09,25,03,12,11.90
2011,09,25,03,13,13.50
2011,09,25,03,14,20.20
2011,09,25,03,15,13.40
2011,09,25,03,16,11.30
2011,09,25,03,17,16.80
2011,09,25,03,18,21.50
2011,09,25,03,19,21.10
2011,09,25,03,20,14.20
2011,09,25,03,21,12.60
2011,09,25,03,22,19.20
2011,09,25,03,23,18.60
2011,09,25,03,24,10.90
2011,09,25,03,25,16.90
2011,09,25,03,26,8.70
2011,09,25,03,27,15.20
2011,09,25,03,28,15.50
2011,09,25,03,29,17.40
2011,09,25,03,30,15.00
2011,09,25,03,31,11.90
2011,09,25,03,32,14.80
2011,09,25,03,33,13.10
2011,09,25,03,34,11.50
2011,09,25,03,35,16.80
2011,09,25,03,36,18.00
2011,09,25,03,37,16.70
2011,09,25,03,38,8.40
2011,09,25,03,39,10.50
2011,09,25,03,40,15.40
2011,09,25,03,41,13.80
2011,09,25,03,42,12.90
2011,09,25,03,43,10.70
2011,09,25,03,44,14.10
2011,09,25,03,45,18.10
2011,09,25,03,46,26.40
2011,09,25,03,47,20.80
2011,09,25,03,48,13.10
2011,09,25,03,49,7.70
2011,09,25,03,50,11.20
2011,09,25,03,51,13.70
2011,09,25,03,52,13.00
2011,09,25,03,53,20.70
2011,09,25,03,54,15.00
2011,09,25,03,55,13.60
2011,09,25,03,56,21.50
2011,09,25,03,57,9.70
2011,09,25,03,58,7.60
2011,09,25,03,59,13.30
2011,09,25,04,00,16.90
2011,09,25,04,01,17.60
2011,09,25,04,02,14.80
2011,09,25,04,03,14.00
2011,09,25,04,04,18.00
2011,09,25,04,05,9.90
2011,09,25,04,06,5.80
2011,09,25,04,07,13.60
2011,09,25,04,08,11.50
2011,09,25,04,09,11.40
2011,09,25,04,10,13.70
2011,09,25,04,11,17.70
2011,09,25,04,12,19.60
2011,09,25,04,13,6.90
2011,09,25,04,14,21.10
2011,09,25,04,15,17.90
2011,09,25,04,16,15.70
2011,09,25,04,17,14.70
2011,09,25,04,18,9.90
2011,09,25,04,19,14.70
2011,09,25,04,20,15.20
2011,09,25,04,21,14.90
2011,09,25,04,22,17.40
2011,09,25,04,23,13.00
2011,09,25,04,24,14.00
2011,09,25,04,25,19.20
2011,09,25,04,26,7.50
2011,09,25,04,27,6.50
2011,09,25,04,28,10.30
2011,09,25,04,29,11.80
2011,09,25,04,30,10.30
2011,09,25,04,31,6.80
2011,09,25,04,32,16.00
2011,09,25,04,33,11.30
2011,09,25,04,34,6.40
2011,09,25,04,35,6.90
2011,09,25,04,36,9.70
2011,09,25,04,37,2.90
2011,09,25,04,38,7.50
2011,09,25,04,39,10.20
2011,09,25,04,40,11.00
2011,09,25,04,41,8.90
2011,09,25,04,42,9.70
2011,09,25,04,43,8.60
2011,09,25,04,44,7.70
2011,09,25,04,45,8.50
2011,09,25,04,46,7.90
2011,09,25,04,47,7.70
2011,09,25,04,48,7.10
2011,09,25,04,49,9.40
2011,09,25,04,50,9.00
2011,09,25,04,51,8.60
2011,09,25,04,52,8.30
2011,09,25,04,53,2.70
2011,09,25,04,54,4.20
2011,09,25,04,55,7.10
2011,09,25,04,56,5.90
2011,09,25,04,57,3.60
2011,09,25,04,58,5.10
2011,09,25,04,59,5.20
2011,09,25,05,00,5.60
2011,09,25,05,01,4.70
2011,09,25,05,02,4.20
2011,09,25,05,03,5.30
2011,09,25,05,04,5.50
2011,09,25,05,05,3.90
2011,09,25,05,06,4.10
2011,09,25,05,07,2.70
2011,09,25,05,08,3.10
2011,09,25,05,09,3.40
2011,09,25,05,10,2.30
2011,09,25,05,11,3.90
2011,09,25,05,12,0.70
2011,09,25,05,13,1.60
2011,09,25,05,14,2.50
2011,09,25,05,15,2.10
2011,09,25,05,16,2.60
2011,09,25,05,17,4.10
2011,09,25,05,18,1.40
2011,09,25,05,19,2.50
2011,09,25,05,20,0.80
2011,09,25,05,21,0.10
2011,09,25,05,22,0.00
2011,09,25,05,23,0.00
2011,09,25,05,24,2.10
2011,09,25,05,25,3.20
2011,09,25,05,26,1.70
2011,09,25,05,27,0.00
2011,09,25,05,28,1.40
2011,09,25,05,29,0.00
2011,09,25,05,30,1.90
2011,09,25,05,31,2.00
2011,09,25,05,32,1.20
2011,09,25,05,33,1.30
2011,09,25,05,34,1.90
2011,09,25,05,35,0.90
2011,09,25,05,36,1.50
2011,09,25,05,37,1.70
2011,09,25,05,38,0.30
2011,09,25,05,39,0.60
2011,09,25,05,40,1.20
2011,09,25,05,41,0.30
2011,09,25,05,42,0.00
2011,09,25,05,43,0.80
2011,09,25,05,44,0.00
2011,09,25,05,45,0.00
2011,09,25,05,46,0.00
2011,09,25,05,47,0.00
2011,09,25,05,48,0.00
2011,09,25,05,49,0.10
2011,09,25,05,50,0.10
2011,09,25,05,51,1.50
2011,09,25,05,52,0.10
2011,09,25,05,53,0.00
2011,09,25,05,54,0.00
2011,09,25,05,55,1.70
2011,09,25,05,56,1.90
2011,09,25,05,57,1.20
2011,09,25,05,58,1.90
2011,09,25,05,59,3.90
2011,09,25,06,00,4.40
2011,09,25,06,01,2.70
2011,09,25,06,02,2.10
2011,09,25,06,03,3.10
2011,09,25,06,04,1.40
2011,09,25,06,05,2.20
2011,09,25,06,06,0.00
2011,09,25,06,07,1.40
2011,09,25,06,08,3.30
2011,09,25,06,09,2.80
2011,09,25,06,10,7.80
2011,09,25,06,11,2.20
2011,09,25,06,12,2.90
2011,09,25,06,13,0.60
2011,09,25,06,14,1.00
2011,09,25,06,15,0.80
2011,09,25,06,16,1.40
2011,09,25,06,17,1.40
2011,09,25,06,18,0.00
2011,09,25,06,19,0.00
2011,09,25,06,20,0.00
2011,09,25,06,21,0.30
2011,09,25,06,22,0.00
2011,09,25,06,23,0.00
2011,09,25,06,24,0.00
2011,09,25,06,25,0.00
2011,09,25,06,26,0.20
2011,09,25,06,27,0.30
2011,09,25,06,28,2.00
2011,09,25,06,29,0.50
2011,09,25,06,30,0.10
2011,09,25,06,31,2.10
2011,09,25,06,32,2.10
2011,09,25,06,33,0.80
2011,09,25,06,34,0.30
2011,09,25,06,35,1.30
2011,09,25,06,36,5.30
2011,09,25,06,37,2.00
2011,09,25,06,38,0.50
2011,09,25,06,39,0.50
2011,09,25,06,40,0.00
2011,09,25,06,41,0.00
2011,09,25,06,42,0.00
2011,09,25,06,43,0.00
2011,09,25,06,44,1.60
2011,09,25,06,45,1.10
2011,09,25,06,46,0.20
2011,09,25,06,47,0.00
2011,09,25,06,48,0.00
2011,09,25,06,49,0.00
2011,09,25,06,50,0.00
2011,09,25,06,51,0.00
2011,09,25,06,52,0.40
2011,09,25,06,53,2.60
2011,09,25,06,54,1.30
2011,09,25,06,55,0.00
2011,09,25,06,56,0.30
2011,09,25,06,57,0.30
2011,09,25,06,58,0.80
2011,09,25,06,59,0.80
2011,09,25,07,00,1.30
2011,09,25,07,01,3.40
2011,09,25,07,02,0.20
2011,09,25,07,03,0.00
2011,09,25,07,04,0.70
2011,09,25,07,05,0.90
2011,09,25,07,06,0.50
2011,09,25,07,07,0.50
2011,09,25,07,08,0.20
2011,09,25,07,09,1.60
2011,09,25,07,10,3.60
2011,09,25,07,11,2.60
2011,09,25,07,12,4.80
2011,09,25,07,13,1.00
2011,09,25,07,14,0.00
2011,09,25,07,15,0.60
2011,09,25,07,16,0.00
2011,09,25,07,17,0.90
2011,09,25,07,18,2.10
2011,09,25,07,19,3.30
2011,09,25,07,20,2.00
2011,09,25,07,21,2.80
2011,09,25,07,22,0.90
2011,09,25,07,23,0.00
2011,09,25,07,24,0.00
2011,09,25,07,25,2.50
2011,09,25,07,26,0.10
2011,09,25,07,27,0.00
2011,09,25,07,28,0.00
2011,09,25,07,29,0.20
2011,09,25,07,30,2.90
2011,09,25,07,31,3.00
2011,09,25,07,32,3.40
2011,09,25,07,33,2.10
2011,09,25,07,34,0.00
2011,09,25,07,35,0.00
2011,09,25,07,36,0.00
2011,09,25,07,37,1.90
2011,09,25,07,38,1.70
2011,09,25,07,39,0.60
2011,09,25,07,40,0.30
2011,09,25,07,41,0.00
2011,09,25,07,42,0.00
2011,09,25,07,43,0.00
2011,09,25,07,44,0.50
2011,09,25,07,45,2.00
2011,09,25,07,46,0.70
2011,09,25,07,47,0.00
2011,09,25,07,48,0.00
2011,09,25,07,49,0.00
2011,09,25,07,50,0.00
2011,09,25,07,51,0.00
2011,09,25,07,52,0.50
2011,09,25,07,53,0.90
2011,09,25,07,54,0.70
2011,09,25,07,55,2.10
2011,09,25,07,56,0.50
2011,09,25,07,57,2.30
2011,09,25,07,58,2.50
2011,09,25,07,59,1.90
2011,09,25,08,00,1.50
2011,09,25,08,01,0.80
2011,09,25,08,02,0.10
2011,09,25,08,03,0.30
2011,09,25,08,04,0.90
2011,09,25,08,05,2.30
2011,09,25,08,06,1.00
2011,09,25,08,07,2.00
2011,09,25,08,08,1.70
2011,09,25,08,09,2.50
2011,09,25,08,10,2.00
2011,09,25,08,11,0.40
2011,09,25,08,12,0.00
2011,09,25,08,13,0.10
2011,09,25,08,14,0.00
2011,09,25,08,15,0.40
2011,09,25,08,16,0.30
2011,09,25,08,17,2.60
2011,09,25,08,18,4.40
2011,09,25,08,19,3.10
2011,09,25,08,20,1.90
2011,09,25,08,21,0.40
2011,09,25,08,22,0.20
2011,09,25,08,23,3.10
2011,09,25,08,24,1.80
2011,09,25,08,25,2.40
2011,09,25,08,26,0.70
2011,09,25,08,27,0.70
2011,09,25,08,28,0.30
2011,09,25,08,29,0.00
2011,09,25,08,30,0.00
2011,09,25,08,31,0.30
2011,09,25,08,32,0.00
2011,09,25,08,33,0.00
2011,09,25,08,34,0.90
2011,09,25,08,35,0.70
2011,09,25,08,36,0.00
2011,09,25,08,37,1.60
2011,09,25,08,38,1.00
2011,09,25,08,39,0.30
2011,09,25,08,40,0.40
2011,09,25,08,41,1.50
2011,09,25,08,42,0.50
2011,09,25,08,43,0.30
2011,09,25,08,44,2.40
2011,09,25,08,45,4.80
2011,09,25,08,46,3.70
2011,09,25,08,47,2.50
2011,09,25,08,48,3.70
2011,09,25,08,49,2.50
2011,09,25,08,50,3.30
2011,09,25,08,51,2.10
2011,09,25,08,52,1.90
2011,09,25,08,53,4.90
2011,09,25,08,54,2.00
2011,09,25,08,55,1.90
2011,09,25,08,56,0.90
2011,09,25,08,57,2.50
2011,09,25,08,58,2.50
2011,09,25,08,59,2.20
2011,09,25,09,00,1.90
2011,09,25,09,01,0.20
2011,09,25,09,02,0.60
2011,09,25,09,03,0.00
2011,09,25,09,04,0.00
2011,09,25,09,05,0.20
2011,09,25,09,06,2.60
2011,09,25,09,07,1.50
2011,09,25,09,08,0.10
2011,09,25,09,09,0.00
2011,09,25,09,10,0.00
2011,09,25,09,11,1.30
2011,09,25,09,12,0.10
2011,09,25,09,13,4.10
2011,09,25,09,14,6.30
2011,09,25,09,15,2.60
2011,09,25,09,16,0.20
2011,09,25,09,17,0.10
2011,09,25,09,18,0.00
2011,09,25,09,19,0.00
2011,09,25,09,20,0.10
2011,09,25,09,21,0.10
2011,09,25,09,22,0.80
2011,09,25,09,23,1.40
2011,09,25,09,24,0.10
2011,09,25,09,25,1.10
2011,09,25,09,26,0.60
2011,09,25,09,27,0.80
2011,09,25,09,28,2.20
2011,09,25,09,29,2.90
2011,09,25,09,30,0.50
2011,09,25,09,31,1.90
2011,09,25,09,32,2.30
2011,09,25,09,33,0.00
2011,09,25,09,34,0.00
2011,09,25,09,35,0.10
2011,09,25,09,36,0.00
2011,09,25,09,37,0.80
2011,09,25,09,38,4.10
2011,09,25,09,39,2.10
2011,09,25,09,40,0.40
2011,09,25,09,41,2.30
2011,09,25,09,42,4.40
2011,09,25,09,43,2.90
2011,09,25,09,44,3.80
2011,09,25,09,45,1.30
2011,09,25,09,46,2.00
2011,09,25,09,47,4.00
2011,09,25,09,48,2.00
2011,09,25,09,49,3.60
2011,09,25,09,50,2.50
2011,09,25,09,51,0.30
2011,09,25,09,52,2.60
2011,09,25,09,53,6.10
2011,09,25,09,54,2.50
2011,09,25,09,55,3.40
2011,09,25,09,56,2.50
2011,09,25,09,57,5.10
2011,09,25,09,58,3.60
2011,09,25,09,59,2.60
2011,09,25,10,00,7.50
2011,09,25,10,01,8.30
2011,09,25,10,02,5.30
2011,09,25,10,03,2.30
2011,09,25,10,04,1.70
2011,09,25,10,05,2.70
2011,09,25,10,06,2.50
2011,09,25,10,07,0.20
2011,09,25,10,08,1.50
2011,09,25,10,09,4.10
2011,09,25,10,10,6.90
2011,09,25,10,11,5.20
2011,09,25,10,12,6.40
2011,09,25,10,13,3.70
2011,09,25,10,14,3.10
2011,09,25,10,15,4.70
2011,09,25,10,16,1.40
2011,09,25,10,17,0.10
2011,09,25,10,18,0.60
2011,09,25,10,19,0.10
2011,09,25,10,20,1.20
2011,09,25,10,21,0.20
2011,09,25,10,22,0.20
2011,09,25,10,23,0.10
2011,09,25,10,24,0.30
2011,09,25,10,25,2.20
2011,09,25,10,26,0.70
2011,09,25,10,27,2.10
2011,09,25,10,28,1.30
2011,09,25,10,29,1.50
2011,09,25,10,30,0.70
2011,09,25,10,31,0.00
2011,09,25,10,32,1.20
2011,09,25,10,33,0.40
2011,09,25,10,34,0.00
2011,09,25,10,35,0.40
2011,09,25,10,36,0.20
2011,09,25,10,37,1.20
2011,09,25,10,38,1.20
2011,09,25,10,39,1.40
2011,09,25,10,40,1.00
2011,09,25,10,41,2.50
2011,09,25,10,42,4.10
2011,09,25,10,43,3.90
2011,09,25,10,44,1.10
2011,09,25,10,45,0.40
2011,09,25,10,46,0.00
2011,09,25,10,47,0.00
2011,09,25,10,48,0.00
2011,09,25,10,49,0.00
2011,09,25,10,50,0.00
2011,09,25,10,51,0.00
2011,09,25,10,52,0.60
2011,09,25,10,53,1.10
2011,09,25,10,54,0.00
2011,09,25,10,55,0.00
2011,09,25,10,56,0.00
2011,09,25,10,57,0.00
2011,09,25,10,58,0.60
2011,09,25,10,59,1.80
2011,09,25,11,00,0.10
2011,09,25,11,01,0.80
2011,09,25,11,02,1.00
2011,09,25,11,03,0.20
2011,09,25,11,04,0.00
2011,09,25,11,05,0.40
2011,09,25,11,06,0.50
2011,09,25,11,07,0.30
2011,09,25,11,08,0.50
2011,09,25,11,09,0.60
2011,09,25,11,10,0.10
2011,09,25,11,11,1.40
2011,09,25,11,12,2.50
2011,09,25,11,13,1.70
2011,09,25,11,14,0.00
2011,09,25,11,15,1.40
2011,09,25,11,16,0.20
2011,09,25,11,17,0.00
2011,09,25,11,18,0.00
2011,09,25,11,19,0.90
2011,09,25,11,20,0.00
2011,09,25,11,21,0.10
2011,09,25,11,22,0.00
2011,09,25,11,23,0.00
2011,09,25,11,24,0.00
2011,09,25,11,25,0.00
2011,09,25,11,26,0.00
2011,09,25,11,27,0.00
2011,09,25,11,28,0.00
2011,09,25,11,29,0.40
2011,09,25,11,30,0.00
2011,09,25,11,31,0.00
2011,09,25,11,32,0.80
2011,09,25,11,33,0.00
2011,09,25,11,34,0.00
2011,09,25,11,35,0.00
2011,09,25,11,36,0.00
2011,09,25,11,37,0.10
2011,09,25,11,38,0.00
2011,09,25,11,39,0.00
2011,09,25,11,40,0.00
2011,09,25,11,41,0.00
2011,09,25,11,42,0.00
2011,09,25,11,43,0.00
2011,09,25,11,44,0.00
2011,09,25,11,45,0.00
2011,09,25,11,46,0.00
2011,09,25,11,47,0.00
2011,09,25,11,48,0.00
2011,09,25,11,49,0.00
2011,09,25,11,50,0.00
2011,09,25,11,51,0.00
2011,09,25,11,52,0.00
2011,09,25,11,53,0.00
2011,09,25,11,54,0.00
2011,09,25,11,55,0.00
2011,09,25,11,56,0.00
2011,09,25,11,57,0.00
2011,09,25,11,58,0.00
2011,09,25,11,59,0.10
2011,09,25,12,00,0.20
2011,09,25,12,01,0.50
2011,09,25,12,02,0.00
2011,09,25,12,03,0.00
2011,09,25,12,04,0.00
2011,09,25,12,05,0.00
2011,09,25,12,06,0.00
2011,09,25,12,07,0.00
2011,09,25,12,08,0.00
2011,09,25,12,09,0.00
2011,09,25,12,10,0.00
2011,09,25,12,11,0.00
2011,09,25,12,12,0.00
2011,09,25,12,13,0.00
2011,09,25,12,14,0.60
2011,09,25,12,15,1.30
2011,09,25,12,16,1.50
2011,09,25,12,17,2.30
2011,09,25,12,18,1.40
2011,09,25,12,19,2.10
2011,09,25,12,20,0.50
2011,09,25,12,21,2.00
2011,09,25,12,22,1.70
2011,09,25,12,23,0.00
2011,09,25,12,24,0.20
2011,09,25,12,25,1.70
2011,09,25,12,26,1.60
2011,09,25,12,27,0.80
2011,09,25,12,28,1.40
2011,09,25,12,29,1.00
2011,09,25,12,30,0.50
2011,09,25,12,31,1.00
2011,09,25,12,32,0.30
2011,09,25,12,33,0.10
2011,09,25,12,34,0.00
2011,09,25,12,35,0.20
2011,09,25,12,36,1.90
2011,09,25,12,37,1.80
2011,09,25,12,38,1.40
2011,09,25,12,39,0.20
2011,09,25,12,40,0.50
2011,09,25,12,41,0.90
2011,09,25,12,42,3.50
2011,09,25,12,43,1.10
2011,09,25,12,44,0.00
2011,09,25,12,45,0.10
2011,09,25,12,46,6.00
2011,09,25,12,47,1.50
2011,09,25,12,48,1.50
2011,09,25,12,49,2.60
2011,09,25,12,50,4.10
2011,09,25,12,51,1.90
2011,09,25,12,52,6.40
2011,09,25,12,53,3.60
2011,09,25,12,54,5.60
2011,09,25,12,55,3.60
2011,09,25,12,56,3.00
2011,09,25,12,57,2.70
2011,09,25,12,58,2.90
2011,09,25,12,59,1.00
2011,09,25,13,00,1.40
2011,09,25,13,01,3.50
2011,09,25,13,02,1.00
2011,09,25,13,03,0.20
2011,09,25,13,04,1.30
2011,09,25,13,05,7.40
2011,09,25,13,06,2.90
2011,09,25,13,07,4.10
2011,09,25,13,08,6.70
2011,09,25,13,09,2.70
2011,09,25,13,10,3.80
2011,09,25,13,11,3.00
2011,09,25,13,12,0.90
2011,09,25,13,13,2.20
2011,09,25,13,14,2.10
2011,09,25,13,15,2.80
2011,09,25,13,16,6.20
2011,09,25,13,17,6.80
2011,09,25,13,18,8.50
2011,09,25,13,19,7.40
2011,09,25,13,20,9.20
2011,09,25,13,21,7.50
2011,09,25,13,22,8.60
2011,09,25,13,23,4.70
2011,09,25,13,24,7.50
2011,09,25,13,25,11.20
2011,09,25,13,26,5.70
2011,09,25,13,27,5.30
2011,09,25,13,28,6.40
2011,09,25,13,29,8.80
2011,09,25,13,30,8.10
2011,09,25,13,31,9.40
2011,09,25,13,32,15.10
2011,09,25,13,33,10.20
2011,09,25,13,34,18.50
2011,09,25,13,35,16.60
2011,09,25,13,36,13.60
2011,09,25,13,37,19.70
2011,09,25,13,38,19.10
2011,09,25,13,39,24.60
2011,09,25,13,40,10.30
2011,09,25,13,41,9.60
2011,09,25,13,42,10.50
2011,09,25,13,43,7.50
2011,09,25,13,44,5.10
2011,09,25,13,45,4.10
2011,09,25,13,46,7.00
2011,09,25,13,47,5.50
2011,09,25,13,48,5.10
2011,09,25,13,49,6.00
2011,09,25,13,50,4.20
2011,09,25,13,51,6.90
2011,09,25,13,52,6.10
2011,09,25,13,53,9.70
2011,09,25,13,54,11.50
2011,09,25,13,55,9.00
2011,09,25,13,56,8.10
2011,09,25,13,57,4.30
2011,09,25,13,58,9.20
2011,09,25,13,59,4.80
2011,09,25,14,00,6.00
2011,09,25,14,01,7.90
2011,09,25,14,02,7.30
2011,09,25,14,03,4.90
2011,09,25,14,04,16.40
2011,09,25,14,05,10.20
2011,09,25,14,06,10.70
2011,09,25,14,07,10.30
2011,09,25,14,08,10.20
2011,09,25,14,09,9.50
2011,09,25,14,10,10.80
2011,09,25,14,11,6.50
2011,09,25,14,12,6.60
2011,09,25,14,13,9.50
2011,09,25,14,14,14.70
2011,09,25,14,15,12.80
2011,09,25,14,16,14.10
2011,09,25,14,17,9.40
2011,09,25,14,18,11.80
2011,09,25,14,19,15.80
2011,09,25,14,20,14.60
2011,09,25,14,21,15.40
2011,09,25,14,22,10.80
2011,09,25,14,23,12.10
2011,09,25,14,24,12.10
2011,09,25,14,25,15.00
2011,09,25,14,26,14.70
2011,09,25,14,27,14.50
2011,09,25,14,28,14.70
2011,09,25,14,29,12.40
2011,09,25,14,30,23.40
2011,09,25,14,31,16.10
2011,09,25,14,32,14.90
2011,09,25,14,33,11.50
2011,09,25,14,34,14.90
2011,09,25,14,35,9.10
2011,09,25,14,36,12.70
2011,09,25,14,37,12.20
2011,09,25,14,38,12.40
2011,09,25,14,39,19.10
2011,09,25,14,40,13.40
2011,09,25,14,41,14.50
2011,09,25,14,42,15.60
2011,09,25,14,43,12.80
2011,09,25,14,44,13.50
2011,09,25,14,45,15.30
2011,09,25,14,46,12.80
2011,09,25,14,47,9.50
2011,09,25,14,48,12.50
2011,09,25,14,49,17.50
2011,09,25,14,50,18.10
2011,09,25,14,51,11.60
2011,09,25,14,52,18.40
2011,09,25,14,53,10.50
2011,09,25,14,54,8.90
2011,09,25,14,55,16.70
2011,09,25,14,56,18.80
2011,09,25,14,57,15.40
2011,09,25,14,58,9.70
2011,09,25,14,59,14.70
2011,09,25,15,00,17.40
2011,09,25,15,01,24.70
2011,09,25,15,02,18.30
2011,09,25,15,03,14.10
2011,09,25,15,04,16.50
2011,09,25,15,05,17.10
2011,09,25,15,06,21.60
2011,09,25,15,07,23.40
2011,09,25,15,08,18.40
2011,09,25,15,09,13.60
2011,09,25,15,10,14.20
2011,09,25,15,11,23.20
2011,09,25,15,12,13.30
2011,09,25,15,13,14.30
2011,09,25,15,14,14.20
2011,09,25,15,15,13.00
2011,09,25,15,16,11.50
2011,09,25,15,17,12.20
2011,09,25,15,18,9.80
2011,09,25,15,19,13.10
2011,09,25,15,20,18.00
2011,09,25,15,21,14.10
2011,09,25,15,22,24.00
2011,09,25,15,23,12.50
2011,09,25,15,24,10.10
2011,09,25,15,25,11.30
2011,09,25,15,26,11.20
2011,09,25,15,27,21.90
2011,09,25,15,28,15.80
2011,09,25,15,29,20.20
2011,09,25,15,30,19.40
2011,09,25,15,31,15.40
2011,09,25,15,32,11.70
2011,09,25,15,33,13.30
2011,09,25,15,34,14.20
2011,09,25,15,35,7.20
2011,09,25,15,36,7.50
2011,09,25,15,37,11.10
2011,09,25,15,38,13.00
2011,09,25,15,39,8.80
2011,09,25,15,40,8.60
2011,09,25,15,41,13.50
2011,09,25,15,42,10.70
2011,09,25,15,43,15.30
2011,09,25,15,44,8.00
2011,09,25,15,45,19.10
2011,09,25,15,46,9.20
2011,09,25,15,47,12.60
2011,09,25,15,48,16.90
2011,09,25,15,49,9.70
2011,09,25,15,50,16.50
2011,09,25,15,51,15.30
2011,09,25,15,52,11.50
2011,09,25,15,53,9.20
2011,09,25,15,54,7.10
2011,09,25,15,55,7.50
2011,09,25,15,56,9.80
2011,09,25,15,57,15.80
2011,09,25,15,58,14.80
2011,09,25,15,59,12.50
2011,09,25,16,00,5.60
2011,09,25,16,01,11.70
2011,09,25,16,02,5.40
2011,09,25,16,03,17.00
2011,09,25,16,04,16.20
2011,09,25,16,05,15.80
2011,09,25,16,06,11.60
2011,09,25,16,07,10.10
2011,09,25,16,08,17.20
2011,09,25,16,09,7.80
2011,09,25,16,10,19.00
2011,09,25,16,11,15.90
2011,09,25,16,12,12.90
2011,09,25,16,13,17.30
2011,09,25,16,14,10.80
2011,09,25,16,15,13.90
2011,09,25,16,16,15.70
2011,09,25,16,17,17.40
2011,09,25,16,18,13.50
2011,09,25,16,19,16.30
2011,09,25,16,20,17.20
2011,09,25,16,21,19.20
2011,09,25,16,22,14.20
2011,09,25,16,23,11.50
2011,09,25,16,24,11.50
2011,09,25,16,25,15.10
2011,09,25,16,26,12.00
2011,09,25,16,27,11.40
2011,09,25,16,28,9.70
2011,09,25,16,29,14.80
2011,09,25,16,30,13.00
2011,09,25,16,31,17.70
2011,09,25,16,32,21.20
2011,09,25,16,33,23.70
2011,09,25,16,34,18.00
2011,09,25,16,35,17.00
2011,09,25,16,36,15.30
2011,09,25,16,37,16.40
2011,09,25,16,38,14.20
2011,09,25,16,39,21.30
2011,09,25,16,40,22.30
2011,09,25,16,41,20.20
2011,09,25,16,42,19.10
2011,09,25,16,43,25.40
2011,09,25,16,44,17.50
2011,09,25,16,45,14.30
2011,09,25,16,46,16.30
2011,09,25,16,47,15.70
2011,09,25,16,48,20.80
2011,09,25,16,49,13.90
2011,09,25,16,50,17.00
2011,09,25,16,51,14.00
2011,09,25,16,52,21.80
2011,09,25,16,53,17.80
2011,09,25,16,54,15.10
2011,09,25,16,55,13.50
2011,09,25,16,56,15.20
2011,09,25,16,57,14.60
2011,09,25,16,58,13.50
2011,09,25,16,59,8.10
2011,09,25,17,00,16.60
2011,09,25,17,01,14.20
2011,09,25,17,02,19.10
2011,09,25,17,03,15.70
2011,09,25,17,04,14.30
2011,09,25,17,05,13.50
2011,09,25,17,06,15.40
2011,09,25,17,07,18.30
2011,09,25,17,08,8.60
2011,09,25,17,09,9.10
2011,09,25,17,10,8.60
2011,09,25,17,11,9.80
2011,09,25,17,12,7.60
2011,09,25,17,13,12.00
2011,09,25,17,14,16.30
2011,09,25,17,15,16.10
2011,09,25,17,16,6.80
2011,09,25,17,17,6.60
2011,09,25,17,18,11.20
2011,09,25,17,19,10.30
2011,09,25,17,20,11.20
2011,09,25,17,21,10.00
2011,09,25,17,22,6.20
2011,09,25,17,23,8.80
2011,09,25,17,24,9.00
2011,09,25,17,25,6.40
2011,09,25,17,26,10.30
2011,09,25,17,27,7.50
2011,09,25,17,28,15.00
2011,09,25,17,29,9.80
2011,09,25,17,30,13.30
2011,09,25,17,31,15.90
2011,09,25,17,32,8.50
2011,09,25,17,33,10.80
2011,09,25,17,34,11.70
2011,09,25,17,35,12.20
2011,09,25,17,36,11.30
2011,09,25,17,37,11.90
2011,09,25,17,38,16.00
2011,09,25,17,39,9.50
2011,09,25,17,40,11.70
2011,09,25,17,41,14.70
2011,09,25,17,42,12.10
2011,09,25,17,43,15.60
2011,09,25,17,44,11.60
2011,09,25,17,45,14.40
2011,09,25,17,46,17.50
2011,09,25,17,47,14.40
2011,09,25,17,48,16.60
2011,09,25,17,49,10.80
2011,09,25,17,50,12.90
2011,09,25,17,51,17.10
2011,09,25,17,52,13.30
2011,09,25,17,53,14.20
2011,09,25,17,54,14.30
2011,09,25,17,55,16.40
2011,09,25,17,56,10.20
2011,09,25,17,57,10.60